Home   Weather   Rouen   Past weeks

Flag for France Past Weather in Rouen, Upper Normandy, France — Yesterday and Last 2 Weeks

Now
55 °F

Clear.


Feels Like: 55 °F
Forecast: 56 / 68 °F
Wind: 5 mph from Southwest

Location: Rouen Airport

Current Time: Jul 22, 2017 at 11:04:10 pm

Latest Report: Jul 22, 2017 at 10:00 pm


Visibility: 10 mi

Pressure: 29.89 "Hg

Humidity: 88%

Dew Point: 52 °F

Location of RouenLocation

Past Weather in Rouen — Graph

°F

Rouen Temperature Yesterday

Maximum temperature yesterday: 75 °F (at 2:30 pm)
Minimum temperature yesterday: 48 °F (at 3:00 am)
Average temperature yesterday: 62 °F

High & Low Weather Summary for the Past Weeks

 TemperatureHumidityPressure
High93 °F (Jul 18, 4:00 pm)100% (Jul 12, 7:30 am)30.30 "Hg (Jul 12, 7:30 am)
Low48 °F (Jul 14, 4:00 am)30% (Jul 18, 2:30 pm)29.74 "Hg (Jul 19, 2:00 am)
Average66 °F67%30.00 "Hg
* Reported Jul 7 9:00 pm — Jul 22 9:30 pm, Rouen. Weather by CustomWeather, © 2017

Note: Actual official high and low records may vary slightly from our data, if they occured in-between our weather recording intervals... More about our weather records

Advertising

Rouen Weather History for the Previous 24 Hours

Scroll right to see more
 ConditionsComfort  
Time TempWeatherWind HumidityBarometerVisibility
9:30 pm
Sat, Jul 22
57 °FSunny.7 mph82%29.89 "Hg10 mi
9:00 pm57 °FSunny.7 mph82%29.86 "Hg10 mi
8:30 pm57 °FSunny.8 mph82%29.89 "Hg10 mi
8:00 pm57 °FSunny.7 mph88%29.86 "Hg10 mi
7:30 pm57 °FBroken clouds.2 mph88%29.86 "HgN/A
7:00 pm57 °FLight rain. Cloudy.3 mph82%29.89 "HgN/A
6:30 pm59 °FCool.3 mph72%29.89 "HgN/A
6:00 pm57 °FPassing clouds.5 mph82%29.86 "HgN/A
5:30 pm55 °FLight rain. Cloudy.8 mph88%29.89 "HgN/A
5:00 pm57 °FLight rain. Mostly cloudy.17 mph67%29.89 "HgN/A
4:30 pm64 °FMostly cloudy.8 mph56%29.86 "HgN/A
4:00 pm64 °FMostly cloudy.9 mph60%29.86 "HgN/A
3:30 pm66 °FPartly sunny.15 mph49%29.86 "HgN/A
3:00 pm66 °FBroken clouds.9 mph52%29.86 "HgN/A
2:30 pm66 °FMostly cloudy.14 mph49%29.86 "HgN/A
2:00 pm66 °FMostly cloudy.15 mph49%29.86 "HgN/A
1:30 pm66 °FPartly sunny.13 mph49%29.86 "HgN/A
1:00 pm66 °FBroken clouds.16 mph49%29.86 "HgN/A
12:30 pm68 °FPartly sunny.15 mph49%29.86 "HgN/A
12:00 pm66 °FPassing clouds.12 mph56%29.86 "HgN/A
11:30 am64 °FBroken clouds.13 mph64%29.86 "HgN/A
11:00 am63 °FScattered clouds.10 mph68%29.86 "HgN/A
10:30 am61 °FScattered clouds.12 mph72%29.86 "HgN/A
9:30 am61 °FBroken clouds.7 mph83%29.83 "HgN/A
9:00 am59 °FOvercast.5 mph82%29.83 "HgN/A
8:30 am57 °FMore clouds than sun.6 mph88%29.83 "HgN/A
8:00 am57 °FOvercast.3 mph88%29.83 "HgN/A
7:30 am57 °FLow clouds.7 mph94%29.80 "HgN/A
6:30 am59 °FMostly cloudy.12 mph88%29.80 "HgN/A
6:00 am59 °FMostly cloudy.12 mph88%29.80 "HgN/A
5:30 am59 °FOvercast.13 mph88%29.80 "HgN/A
5:00 am59 °FRain. Overcast.15 mph82%29.80 "HgN/A
4:30 am59 °FPassing clouds.13 mph82%29.77 "HgN/A
4:00 am59 °FPartly cloudy.14 mph82%29.77 "HgN/A
3:30 am63 °FMostly cloudy.13 mph64%29.77 "HgN/A
3:00 am63 °FPassing clouds.14 mph64%29.77 "HgN/A
2:30 am61 °FClear.12 mph68%29.80 "Hg10 mi
2:00 am63 °FClear.10 mph59%29.80 "Hg10 mi
1:30 am63 °FClear.12 mph59%29.80 "Hg10 mi
12:30 am63 °FClear.12 mph64%29.80 "Hg10 mi
12:00 am63 °FClear.9 mph59%29.80 "Hg10 mi
11:30 pm
Fri, Jul 21
63 °FClear.8 mph59%29.80 "Hg10 mi
Weather by CustomWeather, © 2017

See weather overviewHow to use our weather pages